User: anonymous   Login
Location: Irma
(52.9170°N, 111.2330°W)
Time: 06:13:36
(UTC-06:00)
Language:

Cosmos 2279 Rocket - Orbit

View from above orbital plane
View from above orbital plane
View from above satellite
View from above satellite

Ground track
Ground track

The orbit data is extracted from the following two-line orbital elements,

1 23093U 94024B   16268.63504936 +.00000086 +00000-0 +70380-4 0  9991
2 23093 082.9463 311.9959 0010775 035.7463 324.4414 13.77705438594629
Epoch (UTC): 24 September 2016 15:14:28
Eccentricity: 0.0010775
inclination: 82.9463°
perigee height: 964 km
apogee height: 980 km
right ascension of ascending node: 311.9959°
argument of perigee: 35.7463°
revolutions per day: 13.77705438
mean anomaly at epoch: 324.4414°
orbit number at epoch: 59462

The dashed part of the orbit path shows where the satellite is in the earth's shadow,  

DLR